Temperature
21 20 20 20 20 20 19 19 19 19 19 19 19 18 18 18 18 18 18 18 18 18 18 18 18 18 18 18 18 18 17 17 17 17 17 17 17 17 17 17 17 17 16
20 20 20 20 20 20 20 19 19 19 19 19 19 19 18 18 18 18 18 18 18 18 18 18 18 18 18 18 18 18 17 17 17 17 17 17 17 17 17 17 17 17 16
21 20 20 20 20 20 20 20 19 19 19 19 19 19 19 18 18 18 18 18 18 18 18 18 18 18 18 18 18 18 18 17 17 17 17 17 17 17 17 17 17 16 16
21 21 21 20 20 20 20 20 19 19 19 19 19 19 19 18 18 18 18 18 18 18 18 18 18 18 18 17 17 17 17 17 17 17 17 17 17 17 16 16 16 16 16
21 21 21 21 21 21 20 20 20 19 19 19 19 19 19 19 18 18 18 18 18 18 18 18 18 18 18 17 17 17 17 17 17 17 17 17 17 17 17 16 16 16 16
22 21 21 21 21 21 20 20 20 19 19 19 19 19 19 19 19 19 18 18 18 18 18 18 18 18 18 18 18 17 17 17 17 17 17 17 17 17 17 16 16 16 16
22 21 21 21 21 21 20 20 20 20 19 19 19 19 19 19 19 18 18 18 18 18 18 18 18 18 18 18 18 18 17 17 17 17 17 17 17 17 17 17 17 16 16
22 22 22 22 21 21 21 20 20 20 20 19 19 19 19 19 19 18 18 18 18 18 18 18 18 18 18 18 18 18 17 17 17 17 17 17 17 17 17 17 17 16 16
22 22 22 22 21 21 21 21 20 20 20 20 19 19 19 19 19 19 18 18 18 18 18 18 18 18 18 17 17 17 17 17 17 17 17 17 17 17 17 17 17 17 16
22 22 22 22 22 21 21 21 21 21 20 20 20 19 19 19 19 18 18 18 18 18 18 18 18 18 18 17 17 17 17 17 17 17 17 17 17 17 17 17 17 16 16
22 23 22 22 22 22 21 21 21 20 20 20 20 19 19 19 19 18 18 18 18 18 18 18 18 17 17 17 17 17 17 17 17 17 17 17 17 16 16 16 16 16 16
23 23 22 22 22 22 21 21 21 21 20 20 20 19 19 19 18 18 18 18 18 18 18 18 18 17 17 17 17 17 17 17 17 17 16 17 16 16 16 16 16 16 16
22 22 22 22 22 22 22 21 21 21 20 20 20 19 19 19 18 18 18 18 18 18 18 17 17 17 17 17 17 17 17 17 17 16 16 16 16 16 16 16 16 16 16
22 22 21 21 22 22 21 21 21 21 20 20 20 19 19 19 18 18 18 18 18 18 17 17 17 17 17 17 17 17 16 16 16 16 16 16 16 16 16 16 16 16 16
22 22 22 21 21 21 21 21 21 21 20 20 19 19 19 18 18 18 18 18 17 17 17 17 17 17 17 17 17 17 16 16 16 16 16 16 16 16 16 16 16 15 15
22 22 22 22 21 21 21 21 21 21 20 20 19 19 18 18 18 18 18 18 17 17 17 17 17 17 17 17 17 17 16 16 16 16 16 16 15 15 15 15 15 15 15
21 21 21 22 22 21 21 21 21 20 20 20 19 19 18 18 18 18 17 17 17 17 17 17 17 17 17 17 17 16 16 16 16 16 16 15 15 15 15 15 15 15 15
21 21 21 21 21 21 21 21 20 20 20 19 19 19 18 18 18 17 17 17 17 17 17 17 17 17 17 17 17 16 16 16 16 16 15 15 15 15 15 15 15 15 15
22 21 21 21 21 21 21 20 20 20 19 19 19 18 18 18 18 17 17 17 17 17 17 17 17 17 17 16 16 16 16 16 16 16 15 15 15 15 15 15 15 15 15
21 21 21 21 21 20 20 20 20 20 19 19 19 18 18 18 18 17 17 17 17 17 17 17 17 16 17 16 16 16 16 16 16 16 15 15 15 15 15 15 15 15 15
20 20 20 20 20 20 20 20 20 20 19 19 18 18 18 18 18 17 17 17 16 16 16 17 16 16 16 16 16 16 16 16 16 15 15 15 15 15 15 15 15 15 14
20 20 20 20 20 19 19 19 19 19 19 18 18 18 18 18 17 17 17 16 16 16 16 16 16 16 16 16 16 16 16 16 15 15 15 15 15 15 15 14 14 14 14
19 19 19 19 19 19 19 19 19 18 18 18 18 18 17 17 17 17 17 16 16 16 16 16 16 16 16 16 16 16 16 15 15 15 15 15 14 14 14 14 14 14 14
18 18 18 18 18 18 18 18 18 18 18 18 17 17 17 17 17 16 16 16 16 16 16 15 15 16 16 16 16 16 16 15 15 14 14 14 14 14 14 14 14 14 13
17 17 17 17 17 17 17 17 17 17 17 17 17 17 17 17 16 16 16 16 16 16 15 15 15 15 15 15 15 15 15 15 15 14 14 14 14 14 14 14 14 13 13
17 17 17 17 17 17 17 17 17 17 17 17 17 16 16 16 16 16 16 16 15 15 15 15 15 15 15 15 15 15 15 14 14 14 14 14 14 14 14 13 13 13 13
Wind_Speed
4 4 4 4 4 3 3 3 3 2 3 2 2 2 1 1 1 0 1 2 3 4 4 3 3 3 3 3 3 4 4 2 2 3 2 3 3 2 1 1 1 1 1
4 4 4 4 4 4 3 3 3 2 3 2 2 2 2 1 1 1 1 2 3 4 4 3 3 3 3 3 3 3 2 1 2 2 2 1 2 2 2 2 1 1 1
9 7 6 6 5 5 5 4 3 3 3 3 3 3 3 2 2 2 1 1 3 4 3 3 3 3 3 3 3 3 3 2 1 1 2 2 1 1 2 2 1 1 1
9 8 7 7 7 7 5 4 3 3 2 3 3 3 3 2 1 1 0 1 2 3 3 3 3 3 3 3 3 2 2 3 2 1 1 1 2 2 0 1 1 1 1
10 10 9 8 7 6 5 4 3 3 3 3 4 4 3 2 1 2 2 1 1 2 2 3 3 3 2 3 3 2 2 2 2 2 1 1 1 1 2 1 1 1 1
9 8 8 6 5 5 4 4 4 3 3 4 4 4 4 3 3 2 1 1 1 1 1 2 2 2 2 2 2 2 3 2 2 2 2 2 2 2 2 2 1 1 1
8 8 9 8 7 7 6 5 5 4 3 4 4 4 4 4 4 2 2 1 1 0 0 1 1 2 2 2 2 2 2 2 2 2 1 2 2 2 2 3 1 0 1
9 9 10 10 9 9 7 6 6 5 4 4 4 4 4 3 3 3 2 2 2 1 1 2 1 1 2 2 2 2 2 2 2 2 1 1 1 2 3 3 3 1 0
9 10 9 9 9 9 8 8 7 6 5 5 4 3 4 3 3 3 2 2 1 2 2 2 2 1 2 2 2 2 1 2 1 1 1 1 1 1 2 2 3 3 1
7 8 8 8 8 8 8 7 8 7 5 4 4 4 3 3 3 3 3 2 2 2 3 2 2 2 2 2 2 2 2 3 2 1 2 1 0 1 1 2 2 2 2
8 8 8 8 7 6 7 7 6 5 5 5 4 4 3 3 3 3 2 2 2 3 3 2 3 2 2 2 2 2 2 3 2 1 2 1 1 1 1 1 1 1 2
5 6 6 6 7 7 7 7 7 6 6 5 4 4 3 3 3 3 2 2 3 3 3 3 3 2 2 2 3 2 2 3 2 1 2 1 1 1 1 1 1 1 2
3 4 4 5 7 7 7 7 7 7 6 6 5 4 4 4 4 3 3 2 3 2 2 3 3 2 2 2 2 3 2 2 2 2 2 1 2 1 1 1 1 1 1
4 4 4 4 4 5 6 7 6 6 6 6 6 5 4 4 4 4 3 3 3 2 2 2 2 2 2 2 2 3 3 2 2 1 1 1 2 2 2 1 1 1 1
3 4 4 4 4 5 5 6 6 6 6 6 6 5 4 4 4 4 3 3 3 3 3 2 2 2 2 2 3 3 3 3 2 1 1 1 2 2 2 2 2 2 2
5 5 5 5 5 5 6 6 6 6 6 6 6 5 5 4 4 4 4 3 3 3 3 3 3 2 2 3 5 5 3 3 2 2 1 1 1 1 2 2 3 3 3
5 5 6 6 7 6 7 7 7 7 7 6 6 5 6 5 4 4 4 4 4 3 3 3 2 2 2 4 5 5 4 4 3 3 2 1 0 1 1 1 1 1 2
5 5 5 5 5 5 5 6 7 7 7 7 6 6 5 5 4 4 4 4 3 3 3 3 3 3 3 4 5 5 4 3 3 3 3 2 1 1 2 1 1 1 2
5 4 5 4 4 4 6 6 7 7 7 7 7 6 6 5 5 5 5 4 4 4 4 3 4 4 4 5 6 5 3 3 3 3 3 3 3 3 4 3 2 2 2
2 2 3 3 4 4 5 7 7 8 8 8 7 7 7 7 6 6 4 3 4 4 4 4 4 5 5 6 7 7 4 3 3 2 3 4 4 4 5 4 4 3 3
1 1 3 4 4 4 6 6 7 8 8 7 6 6 6 7 7 5 4 3 3 3 3 4 4 4 5 6 7 8 5 5 4 3 3 3 5 6 6 5 4 5 3
2 0 2 2 2 4 5 6 6 5 5 6 6 6 6 6 5 5 4 4 4 3 3 3 3 3 4 5 6 9 8 7 5 5 4 4 4 5 5 4 4 4 2
1 1 2 1 0 2 4 5 4 4 5 6 6 5 5 5 5 6 5 4 4 4 3 4 4 4 3 3 5 6 7 8 5 4 5 4 4 4 4 4 4 3 2
1 2 2 2 0 0 1 3 3 4 5 5 5 5 5 4 4 4 5 4 4 4 4 5 5 4 4 4 3 3 4 5 4 3 3 3 3 3 3 3 3 3 3
0 1 1 1 1 1 2 2 3 4 4 4 4 4 4 4 4 4 4 5 5 6 6 6 6 6 6 7 8 5 4 4 4 3 2 2 2 2 3 3 3 3 3
1 1 1 2 2 2 3 3 4 5 5 4 4 4 4 4 4 4 3 3 5 6 8 8 7 7 8 7 8 9 8 7 7 5 3 4 4 5 4 4 4 3 4
Wind_Direction
205 177 178 171 153 152 154 156 146 140 128 111 114 118 130 131 98 176 186 163 153 143 146 143 143 136 136 142 131 122 111 101 103 93 63 42 50 60 48 48 59 50 70
194 186 181 177 171 172 177 172 171 159 151 143 133 132 131 145 141 71 98 134 145 148 151 143 146 140 132 125 125 132 136 133 113 121 104 34 14 22 31 41 54 39 57
197 194 189 189 181 184 191 191 189 175 160 136 107 90 79 69 64 60 66 95 133 144 147 148 152 148 145 150 154 154 155 158 113 115 138 139 201 336 6 25 33 49 57
198 194 191 191 195 198 192 191 182 174 158 139 133 133 135 141 162 150 138 74 112 129 140 146 152 155 154 157 170 163 152 149 149 115 96 135 149 149 350 353 21 33 46
197 195 196 197 197 190 183 183 174 177 163 152 157 151 147 153 126 99 87 64 66 100 132 148 153 156 157 163 165 149 149 157 166 164 148 126 111 141 163 250 343 12 348
196 195 195 187 187 181 177 172 170 186 170 162 163 165 162 151 134 125 113 81 69 71 97 138 146 154 159 168 169 162 157 165 160 159 160 164 170 177 169 188 225 297 319
188 188 189 187 187 186 183 179 176 193 184 174 177 177 173 166 168 172 175 165 137 136 158 124 140 146 157 153 147 145 148 155 153 170 180 188 200 173 159 158 173 223 314
187 192 195 191 190 190 186 182 184 196 187 184 188 178 170 172 179 181 181 181 187 194 144 123 126 132 133 134 135 138 144 140 153 166 162 171 195 175 171 169 158 154 352
191 195 191 190 188 189 191 188 191 197 191 189 182 173 170 169 175 171 165 163 169 155 136 135 130 126 118 121 127 129 131 127 139 150 145 148 184 172 178 173 172 168 193
193 195 192 192 190 191 190 185 188 193 189 181 183 182 174 172 168 153 157 159 165 152 139 133 130 119 114 122 119 118 120 115 109 120 114 102 103 115 138 165 176 181 181
196 194 193 193 188 183 183 185 187 182 178 179 179 168 166 156 145 149 164 167 163 160 152 145 131 123 120 117 116 119 119 119 111 104 119 109 98 103 108 118 141 160 165
193 188 186 184 182 184 186 186 186 186 186 176 170 165 154 140 143 158 170 160 156 156 153 143 134 137 135 131 136 139 129 134 135 126 119 121 116 105 120 138 149 167 181
159 156 168 181 188 187 185 184 184 186 179 167 166 160 160 159 164 168 164 153 152 148 146 148 151 157 151 142 150 142 136 137 141 140 146 160 141 148 166 157 150 172 158
154 156 170 180 183 182 179 179 184 180 172 165 165 168 179 180 179 175 168 163 156 157 169 169 173 176 166 153 152 146 145 141 131 133 148 163 165 179 186 175 175 162 139
180 182 185 186 185 180 177 174 173 167 164 165 170 180 184 175 172 175 177 172 169 180 181 174 179 178 170 173 165 162 157 150 143 133 156 169 163 168 176 179 183 169 166
213 208 201 190 189 191 186 178 177 172 161 164 172 171 168 167 177 183 181 176 183 187 176 184 186 185 199 174 164 161 159 160 164 173 201 198 182 185 182 172 172 174 175
219 213 214 210 201 195 188 183 179 168 166 172 173 171 169 170 181 183 180 190 197 192 191 198 188 195 201 178 175 174 172 176 183 186 194 213 229 150 175 156 146 195 206
221 220 217 217 212 194 185 177 166 166 171 173 177 177 173 176 178 179 190 199 196 195 200 205 206 205 215 190 183 180 186 192 202 205 203 201 221 215 183 181 196 239 247
223 220 213 204 197 191 180 168 168 170 177 184 185 184 177 177 180 194 202 201 195 204 207 202 203 212 230 208 189 174 181 198 219 223 217 212 222 225 187 179 207 255 282
257 227 201 178 183 189 172 169 176 178 190 195 191 185 181 182 191 201 205 204 200 208 206 210 213 212 221 212 193 178 185 203 224 233 234 223 221 217 184 182 194 227 257
291 226 175 181 194 180 169 175 179 195 197 189 183 185 188 190 194 193 196 193 198 202 208 215 224 221 222 215 199 184 189 203 212 223 233 239 219 210 201 192 206 225 226
345 102 163 191 189 170 166 175 194 197 174 175 183 189 192 193 190 187 195 190 189 206 222 224 237 237 230 219 208 194 197 198 207 221 230 236 217 206 205 206 219 215 198
359 43 127 128 140 176 166 182 198 167 163 171 186 193 196 192 185 186 193 198 194 209 227 228 233 242 237 230 218 207 203 201 208 224 221 219 207 200 212 223 216 204 202
51 64 93 112 116 206 172 181 165 149 157 176 186 186 189 194 191 194 195 199 204 211 224 230 232 234 233 230 220 212 209 205 209 221 218 212 205 203 221 230 224 215 213
108 88 115 158 229 238 225 187 163 150 155 175 185 187 191 196 202 211 211 213 222 216 217 228 225 222 233 234 215 204 210 207 205 188 192 207 215 226 239 244 243 231 222
190 197 218 216 235 226 229 204 182 167 165 181 196 202 201 202 207 210 234 240 233 239 233 232 227 232 234 225 208 210 211 201 177 168 200 216 221 226 233 240 245 238 231
Height
1519 1520 1521 1522 1523 1524 1524 1525 1525 1525 1526 1526 1527 1527 1528 1529 1529 1530 1531 1532 1532 1533 1534 1535 1536 1537 1538 1539 1540 1540 1541 1542 1543 1543 1543 1544 1544 1544 1544 1545 1545 1545 1546
1518 1519 1520 1522 1523 1524 1524 1525 1526 1526 1527 1527 1528 1528 1529 1530 1530 1531 1532 1532 1533 1534 1535 1536 1536 1537 1538 1539 1540 1541 1541 1542 1543 1543 1543 1543 1545 1544 1544 1545 1545 1545 1545
1515 1518 1519 1521 1522 1523 1524 1525 1526 1526 1527 1528 1529 1529 1530 1530 1531 1532 1532 1533 1534 1534 1535 1536 1537 1538 1538 1539 1540 1541 1542 1542 1543 1543 1544 1544 1544 1544 1545 1545 1545 1545 1545
1513 1515 1518 1519 1521 1522 1524 1525 1526 1527 1528 1528 1529 1529 1530 1531 1531 1532 1533 1533 1534 1535 1536 1536 1537 1538 1539 1539 1540 1541 1542 1542 1543 1543 1543 1544 1544 1544 1544 1545 1545 1545 1545
1511 1513 1515 1518 1520 1522 1523 1525 1526 1527 1528 1528 1529 1530 1530 1531 1532 1533 1533 1534 1534 1535 1536 1536 1537 1538 1539 1539 1540 1541 1541 1542 1542 1543 1543 1543 1544 1544 1544 1544 1544 1544 1544
1508 1511 1514 1517 1519 1521 1523 1524 1525 1526 1527 1528 1529 1530 1530 1531 1532 1533 1533 1534 1535 1535 1535 1536 1537 1538 1538 1539 1540 1540 1541 1541 1542 1542 1543 1543 1543 1543 1543 1543 1543 1543 1543
1506 1509 1512 1515 1517 1519 1521 1523 1524 1525 1526 1527 1528 1529 1530 1531 1532 1532 1533 1534 1534 1535 1535 1536 1536 1537 1538 1539 1539 1540 1540 1541 1541 1542 1542 1542 1543 1543 1542 1542 1542 1542 1543
1503 1506 1509 1512 1515 1517 1519 1521 1522 1524 1525 1526 1527 1529 1530 1531 1531 1532 1533 1534 1534 1534 1535 1536 1536 1537 1537 1538 1539 1539 1539 1540 1541 1541 1541 1541 1542 1542 1542 1542 1542 1541 1542
1501 1504 1507 1510 1512 1515 1517 1519 1521 1522 1524 1525 1526 1528 1529 1530 1531 1532 1533 1533 1534 1534 1535 1535 1536 1536 1537 1537 1538 1538 1539 1539 1540 1540 1540 1540 1540 1541 1541 1541 1541 1542 1541
1499 1502 1505 1508 1511 1513 1515 1518 1519 1521 1523 1524 1526 1527 1528 1529 1530 1531 1532 1533 1533 1534 1534 1535 1535 1535 1536 1536 1537 1537 1538 1538 1539 1539 1539 1539 1539 1539 1540 1540 1540 1540 1540
1497 1500 1503 1506 1509 1512 1514 1516 1518 1520 1522 1523 1525 1526 1527 1528 1529 1530 1531 1532 1533 1533 1534 1534 1534 1535 1535 1535 1536 1536 1537 1537 1537 1538 1538 1538 1538 1538 1538 1538 1538 1538 1539
1496 1499 1502 1504 1507 1509 1512 1514 1516 1518 1520 1522 1524 1524 1526 1527 1528 1529 1530 1531 1532 1532 1533 1533 1533 1534 1534 1534 1535 1535 1536 1536 1536 1536 1537 1537 1537 1537 1537 1537 1537 1537 1537
1495 1498 1500 1502 1505 1507 1510 1512 1514 1516 1518 1520 1522 1523 1524 1525 1527 1528 1529 1530 1531 1531 1532 1532 1532 1533 1533 1534 1534 1534 1535 1535 1535 1535 1535 1536 1536 1536 1536 1536 1536 1536 1535
1494 1496 1498 1500 1503 1505 1507 1510 1512 1514 1516 1518 1520 1521 1522 1524 1525 1527 1528 1528 1529 1530 1530 1531 1531 1531 1532 1532 1533 1533 1533 1534 1534 1534 1534 1535 1535 1535 1535 1535 1535 1534 1534
1493 1495 1496 1499 1501 1503 1505 1508 1510 1512 1514 1516 1517 1519 1521 1522 1523 1524 1526 1527 1527 1528 1529 1529 1530 1530 1530 1531 1532 1532 1532 1532 1533 1533 1533 1533 1534 1534 1533 1533 1533 1533 1532
1492 1494 1495 1497 1498 1501 1503 1505 1507 1510 1512 1514 1516 1517 1519 1520 1521 1522 1523 1524 1525 1526 1527 1527 1528 1529 1529 1530 1530 1531 1531 1531 1531 1531 1532 1532 1532 1532 1532 1532 1532 1531 1531
1491 1492 1493 1494 1496 1498 1500 1503 1505 1508 1510 1511 1513 1515 1516 1517 1518 1520 1521 1522 1523 1524 1525 1525 1526 1527 1527 1528 1529 1529 1529 1530 1530 1530 1530 1530 1530 1530 1530 1530 1530 1530 1529
1489 1490 1492 1493 1494 1496 1499 1501 1503 1505 1507 1508 1510 1512 1513 1514 1516 1517 1518 1519 1521 1521 1522 1523 1524 1524 1525 1526 1527 1527 1527 1527 1528 1528 1528 1528 1528 1528 1528 1528 1528 1528 1528
1487 1488 1490 1491 1492 1494 1496 1498 1500 1502 1504 1505 1507 1509 1510 1511 1513 1514 1515 1517 1518 1519 1520 1521 1521 1522 1523 1523 1524 1525 1525 1525 1525 1525 1525 1525 1526 1526 1526 1526 1525 1525 1525
1485 1486 1487 1488 1490 1492 1494 1495 1497 1499 1500 1502 1504 1506 1507 1508 1510 1511 1513 1515 1516 1516 1517 1518 1519 1519 1520 1520 1521 1521 1522 1522 1522 1522 1522 1523 1523 1523 1523 1523 1523 1522 1523
1484 1484 1485 1486 1487 1489 1491 1492 1494 1495 1497 1499 1501 1503 1504 1506 1507 1509 1510 1511 1512 1513 1514 1515 1515 1516 1516 1517 1517 1518 1518 1518 1518 1519 1519 1519 1519 1520 1520 1520 1520 1520 1520
1481 1482 1483 1484 1485 1486 1488 1489 1491 1493 1495 1497 1498 1499 1501 1503 1504 1505 1507 1508 1509 1509 1510 1511 1511 1512 1512 1513 1513 1514 1514 1515 1515 1515 1515 1516 1516 1516 1516 1516 1516 1516 1516
1480 1480 1481 1482 1484 1484 1486 1487 1489 1491 1493 1494 1495 1497 1498 1499 1501 1502 1503 1504 1505 1505 1506 1507 1507 1508 1508 1509 1509 1510 1510 1511 1511 1511 1511 1512 1512 1512 1512 1513 1513 1513 1512
1479 1479 1480 1481 1482 1483 1484 1486 1487 1488 1490 1491 1493 1494 1495 1496 1497 1499 1499 1500 1500 1501 1502 1503 1503 1503 1504 1504 1505 1506 1506 1506 1507 1507 1507 1508 1508 1508 1508 1508 1508 1508 1508
1478 1479 1479 1480 1481 1482 1483 1484 1485 1486 1487 1488 1489 1491 1492 1493 1494 1495 1496 1496 1497 1497 1499 1499 1500 1500 1500 1500 1501 1502 1502 1502 1502 1503 1503 1503 1504 1504 1503 1503 1504 1504 1504
1477 1478 1478 1479 1479 1480 1481 1482 1483 1484 1484 1485 1486 1488 1488 1489 1491 1491 1492 1492 1493 1494 1495 1496 1496 1496 1497 1497 1497 1497 1498 1498 1498 1498 1498 1499 1499 1499 1499 1499 1499 1499 1499